User: anonymous   Login
Location: Caltech
(34.1382°N, 118.1253°W)
Time: 15:52:32
(UTC-07:00)
Language:

Cosmos-2242 - Orbit

View from above orbital plane
View from above orbital plane
View from above satellite
View from above satellite

Ground track
Ground track

The orbit data is extracted from the following two-line orbital elements,

1 22626U 93024A   14302.89444042  .00002341  00000-0  26288-3 0  2465
2 22626 082.5243 227.3975 0021315 071.6958 288.6575 14.86206481163277
Epoch (UTC): 29 October 2014 21:27:59
Eccentricity: 0.0021315
inclination: 82.5243°
perigee height: 595 km
apogee height: 625 km
right ascension of ascending node: 227.3975°
argument of perigee: 71.6958°
revolutions per day: 14.86206481
mean anomaly at epoch: 288.6575°
orbit number at epoch: 16327

The dashed part of the orbit path shows where the satellite is in the earth's shadow,  

DLR